Location: Battersea Observatory
(44.4318°N, 76.3841°W)
Time: 15:25:00
(UTC-04:00)

Tiros 1 - Pass Details

Date: 22 January 2022
Orbit: 629 x 663 km, 48.4° (Epoch: 27 May)

Event Time Altitude Azimuth Distance (km) Brightness Sun altitude
Exits shadow 04:12:51 21° 94° (E) 1,452 9.5 -35.6°
Drops below altitude 10° 04:14:26 10° 99° (E) 2,040 10.4 -35.3°
Sets 04:16:46 0° 102° (ESE) 2,942 11.5 -34.9°
